Location: Dehesa de la Cepeda
(40.6574°N, 4.3013°W)
Time: 09:50:41
(UTC+00:00)

OAO 3 Rocket - Pass Details

Date: 05 July 2020
Orbit: 629 x 683 km, 35.0° (Epoch: 07 August)

Event Time Altitude Azimuth Distance (km) Brightness Sun altitude
Rises 21:14:26 0° 265° (W) 2,999 7.2 -13.1°
Reaches altitude 10° 21:16:55 10° 257° (WSW) 2,093 6.2 -13.5°
Maximum altitude 21:21:27 39° 190° (S) 1,016 3.8 -14.0°
Enters shadow 21:23:56 23° 137° (SE) 1,430 4.3 -14.4°
